Overview Statistics Trail Chart Weather Telemetry Raw packets
 

This is the latest recevied weather packets stored in our database for station/object KV9E. If no packets are shown the sender has not sent any weather packets the latest 10 day(s).

<< 90 91 92 93 94 95 96 >>
Time Temp. Humidity Pressure Rain* Wind** Luminosity Snow
1787941228 27.22° C 64% 1018.4 hPa 0 mm - 438 W/m² -
1787940928 27.78° C 64% 1018.8 hPa 0 mm - 298 W/m² -
1787940626 27.78° C 62% 1018.8 hPa 0 mm - 646 W/m² -
1787940325 27.22° C 63% 1018.8 hPa 0 mm - 641 W/m² -
1787940020 27.78° C 61% 1018.6 hPa 0 mm - 635 W/m² -
1787939719 27.22° C 64% 1018.6 hPa 0 mm - 648 W/m² -
1787939414 26.67° C 62% 1018.8 hPa 0 mm - 645 W/m² -
1787939109 25.56° C 69% 1018.8 hPa 0 mm - 626 W/m² -
1787938808 25° C 70% 1019 hPa 0 mm - 597 W/m² -
1787938503 25° C 73% 1018.9 hPa 0 mm - 657 W/m² -
1787938199 26.11° C 69% 1018.9 hPa 0 mm - 93 W/m² -
1787937893 26.67° C 67% 1019 hPa 0 mm - 99 W/m² -
1787937584 26.67° C 68% 1019 hPa 0 mm - 628 W/m² -
1787937279 26.67° C 64% 1019.3 hPa 0 mm - 636 W/m² -
1787936975 26.67° C 67% 1019 hPa 0 mm - 621 W/m² -
1787936674 26.67° C 65% 1018.9 hPa 0 mm - 606 W/m² -
1787936379 26.11° C 68% 1019 hPa 0 mm - 628 W/m² -
1787936069 26.11° C 68% 1019.1 hPa 0 mm - 129 W/m² -
1787935764 26.67° C 67% 1018.8 hPa 0 mm - 160 W/m² -
1787935460 26.67° C 65% 1019.2 hPa 0 mm - 190 W/m² -
1787935157 26.67° C 67% 1019.1 hPa 0 mm - 308 W/m² -
1787934852 26.11° C 69% 1019 hPa 0 mm - 269 W/m² -
1787934550 25° C 74% 1019.2 hPa 0 mm - 469 W/m² -
1787934246 24.44° C 73% 1019.2 hPa 0 mm - 131 W/m² -
1787933944 25° C 75% 1019.1 hPa 0 mm - 89 W/m² -

* Rain latest hour (hover to see other rain measurements)
** Current wind speed in m/s (hover to see current wind gust speed)